Retour au catalogue

STARLINK-31121

ActifCommunicationsVLEO
NORAD 58685·PAYLOAD·🇺🇸 United States

Lancé Dec 29, 2023 depuis Cape Canaveral Space Force Station

Loading…

Prochains Passages (prochaines 24 heures)

TLE

FraisSource: CelesTrak SupGP

Époque: Sep 15, 2026, 03:08 UTC

1 58685C 23211U   26258.13104167  .00002929  00000+0  10608-3 0  2584
2 58685  43.0030  95.0433 0001928 270.3205  11.6726 15.27583822    14

Suivez STARLINK-31121 en temps réel avec AllMySat

Download on the App Store